LiveATC.Net - Listen to live air traffic control over the Internet!

ICAO: PAFA  IATA: FAI   Airport: Fairbanks International Airport
City: Fairbanks   State/Province: Alaska
Country: United States   Continent: North America
PAFA METAR Weather: PAFA 271753Z 00000KT 10SM FEW220 M16/M18 A2975 RMK AO2 SLP086 I6000 T11561178 11139 21167 51003
PAFA Flight Activity (FlightAware)
PAFA Airport Info   (AirNav) (iFlightPlanner)
PAFA VFR Sectional Chart   (iFlightPlanner) 
PAFA IFR Low Chart   (iFlightPlanner) 
PAFA Gnd/Twr/App
Feed Status: UP   Listeners: 0
Listen right in your browser - requires Flash (in browser, requires Flash)
Click here to listen with your own player (launches your MP3 player)
PAFA Gnd/Twr/App Audio Archives
Fairbanks Approach125.350
Fairbanks Approach126.500
Fairbanks Ground121.900
Fairbanks Tower118.300


Unauthorized use prohibited. See Terms of Service

Find LiveATC Audio Streams

Airport/ARTCC Code

(e.g., 124.400, 128.75)
Site-wide search

Browse LiveATC Feeds
LiveATC Coverage Map
Top 50 LiveATC Feeds
Bad Weather Areas

Offer a LiveATC Feed
Press Inquiries

LiveATC on iPhone
LiveATC on Android

Windows Phone
Windows 8/10

LiveATC Mobile
(Mobile browser)

ATC Audio Archives
Interesting Recordings

LiveATC Forums

Home Page
Make a Donation
LiveATC Store

Terms of Use
Privacy Policy

Canadian Air Freqs


FAA Airport Status
Nat'l Airspace Status
Arrival Demand Charts

Server Software By: